Regional Weather Roundup
Issued by NWS Little Rock, AR

Home | Current Version | Previous Version | Graphics & Text | Print | Product List | Glossary On
Versions: 1 2 3 4 5 6 7 8 9 10 11 12 13 14 15 16 17 18 19 20 21 22 23 24 25 26 27 28 29 30 31
000
ASUS44 KLZK 240005
RWRLZK

WEATHER ROUNDUP FOR ARKANSAS
NATIONAL WEATHER SERVICE LITTLE ROCK AR
700 PM CDT FRI JUN 23 2017

NOTE: "FAIR" INDICATES FEW OR NO CLOUDS BELOW 12,000 FEET WITH NO
SIGNIFICANT WEATHER AND/OR OBSTRUCTIONS TO VISIBILITY.

ARZ001-003-010-029-240100-
NORTHWEST ARKANSAS

CITY           SKY/WX    TMP DP  RH WIND       PRES   REMARKS
FAYETTEVILLE   CLOUDY    76  67  73 VRB6      29.94S
6HR MIN TEMP:  72; 6HR MAX TEMP:  87; 6HR PCP:  0.03;

FORT SMITH     CLOUDY    80  72  76 E8        29.89R
6HR MIN TEMP:  80; 6HR MAX TEMP:  94; 6HR PCP:  0.18;

HARRISON       CLOUDY    71  69  93 NW5       29.95R
6HR MIN TEMP:  67; 6HR MAX TEMP:  71; 6HR PCP:  0.37;

BENTONVILLE    MOSUNNY   79  57  47 NE10      29.96S
6HR MIN TEMP:  70; 6HR MAX TEMP:  84; 6HR PCP:  0.27;

ROGERS         MOSUNNY   79  60  52 NE8       29.97R
6HR MIN TEMP:  70; 6HR MAX TEMP:  84;

SILOAM SPGS    MOSUNNY   79  57  47 NE9       29.95R
6HR MIN TEMP:  77; 6HR MAX TEMP:  88;

HIGHFILL       MOSUNNY   80  59  48 NE13      29.96R
6HR MIN TEMP:  76; 6HR MAX TEMP:  87;

SPRINGDALE     MOSUNNY   77  64  65 NE12G18   29.97R
$$

ARZ004-005-016-240100-
NORTH CENTRAL ARKANSAS

CITY           SKY/WX    TMP DP  RH WIND       PRES   REMARKS
BATESVILLE     CLOUDY    70  66  88 CALM      29.87F
6HR MIN TEMP:  70; 6HR MAX TEMP:  90; 6HR PCP:  0.23;

FLIPPIN        CLOUDY    72  64  78 SW3       29.90R
6HR MIN TEMP:  70; 6HR MAX TEMP:  91; 6HR PCP:  0.43;

MTN HOME       CLOUDY    70  69  97 CALM      29.91R
6HR MIN TEMP:  68; 6HR MAX TEMP:  87; 6HR PCP:  0.52;

$$

ARZ040-041-240100-
WEST CENTRAL ARKANSAS

CITY           SKY/WX    TMP DP  RH WIND       PRES   REMARKS
MENA           PTSUNNY   82  81  94 CALM      29.88S HX  95
MOUNT IDA      RAIN      71  70  96 VRB7      29.86F FOG
6HR MIN TEMP:  72; 6HR MAX TEMP:  94; 6HR PCP:  1.17;

$$

ARZ009-017-025-026-028-240100-
NORTHEAST ARKANSAS

CITY           SKY/WX    TMP DP  RH WIND       PRES   REMARKS
JONESBORO      CLOUDY    73  70  90 W15G24    29.85R
6HR MIN TEMP:  72; 6HR MAX TEMP:  91;

WALNUT RIDGE   CLOUDY    73  68  83 W7        29.84R
6HR MIN TEMP:  72; 6HR MAX TEMP:  91; 6HR PCP:  1.32;

BLYTHEVILLE    RAIN      75  74  96 W7        29.84S
6HR MIN TEMP:  73; 6HR MAX TEMP:  86; 6HR PCP:  0.93;

$$

ARZ022-023-033-042-044-240100-
CENTRAL ARKANSAS

CITY           SKY/WX    TMP DP  RH WIND       PRES   REMARKS
LITTLE ROCK    CLOUDY    71  70  96 W7        29.92R
6HR MIN TEMP:  70; 6HR MAX TEMP:  90; 6HR PCP:  0.42;

N LITTLE ROCK    N/A     70  68  94 E5        29.90R
6HR MIN TEMP:  70; 6HR MAX TEMP:  88;

JACKSONVILLE   CLOUDY    71  71  99 W8        29.89R
6HR MIN TEMP:  71; 6HR MAX TEMP:  90; 6HR PCP:  0.28;

CONWAY           N/A     72  70  94 SE5       29.87R
SEARCY         LGT RAIN  70  70 100 MISG      29.89S
6HR MIN TEMP:  70; 6HR MAX TEMP:  90; 6HR PCP:  0.23;

HOT SPRINGS    TSTM      73  70  90 S5        29.88F
6HR MIN TEMP:  71; 6HR MAX TEMP:  94; 6HR PCP:  0.37;

RUSSELLVILLE   CLOUDY    71  70  96 E3        29.89R
6HR MIN TEMP:  71; 6HR MAX TEMP:  92; 6HR PCP:  0.45;

CLINTON        FAIR      70  70 100 CALM      29.90R
$$

ARZ036-240100-
EAST ARKANSAS

CITY           SKY/WX    TMP DP  RH WIND       PRES   REMARKS
WEST MEMPHIS   CLOUDY    74  72  93 NE14      29.83S
6HR MIN TEMP:  72; 6HR MAX TEMP:  85; 6HR PCP:  0.10;

$$

ARZ050-053-066-070-073-240100-
SOUTHWEST ARKANSAS

CITY           SKY/WX    TMP DP  RH WIND       PRES   REMARKS
CAMDEN         SUNNY     90  75  62 CALM      29.87R HX 100
TEXARKANA      MOSUNNY   89  77  67 SW7       29.83R HX 101
6HR MIN TEMP:  87; 6HR MAX TEMP:  92;

EL DORADO      MOSUNNY   86  79  79 S3        29.86R HX  99
6HR MIN TEMP:  83; 6HR MAX TEMP:  88;

DE QUEEN       MOSUNNY   82  81  96 CALM      29.80S HX  95
6HR MIN TEMP:  81; 6HR MAX TEMP:  95; 6HR PCP:  0.09;

$$

ARZ056-057-069-240100-
SOUTHEAST ARKANSAS

CITY           SKY/WX    TMP DP  RH WIND       PRES   REMARKS
PINE BLUFF     LGT RAIN  71  69  93 NE6       29.92R
6HR MIN TEMP:  70; 6HR MAX TEMP:  87; 6HR PCP:  0.46;

STUTTGART      CLOUDY    72  59  64 E8        29.88F
                                      6HR PCP:  0.03;

MONTICELLO     CLOUDY    84  78  82 W3        29.88R HX  95
6HR MIN TEMP:  78; 6HR MAX TEMP:  85; 6HR PCP: TRACE;


$$






USA.gov is the U.S. government's official web portal to all federal, state and local government web resources and services.